Powrót do katalogu

STARLINK-38223

AktywnyŁącznośćSSO
NORAD 100190·PAYLOAD·🇺🇸 United States

Wystrzelony Aug 1, 2026 z Vandenberg Space Force Base

Loading…

Następne Przeloty (najbliższe 24 godziny)

TLE

ŚwieżeSource: Space-Track

Epoka: Sep 14, 2026, 13:14 UTC

1 A0190U 26175M   26257.55172933  .00202706  00000-0  13245-2 0  9992
2 A0190  97.2830  99.7524 0001616 149.7124 210.4235 15.75249537  8248

Śledź STARLINK-38223 w czasie rzeczywistym z AllMySat

Download on the App Store